When you browse on this site, cookies collect data to enhance your experience and personalize the content and advertising you see.
Visit our Privacy Policy to learn more. By continuing to use the site, you agree to this use of cookies and data.
  • In Latvia
  • List of Countries
  • For 7 days
  • Water Temperature
  • Satellite Maps
  • Weather Map
  • Weather Widgets
  • user-avatar
    Login

    Hourly Weather Durham

    Today, 23 January, Wednesday

    Time Temperature Precipitation Wind Pressure Humidity
    00:00 -2°C° 0 mm 3 mps 741 mmHg 83%
    01:00 -2°C° 0 mm 3 mps 742 mmHg 82%
    02:00 -2°C° 0 mm 3 mps 742 mmHg 81%
    03:00 -2°C° 0 mm 3 mps 742 mmHg 81%
    04:00 -2°C° 0 mm 3 mps 742 mmHg 80%
    05:00 -2°C° 0 mm 3 mps 743 mmHg 79%
    06:00 -3°C° 0 mm 4 mps 743 mmHg 81%
    07:00 -3°C° 0 mm 4 mps 744 mmHg 80%
    08:00 -3°C° 0 mm 4 mps 745 mmHg 79%
    09:00 -3°C° 0 mm 4 mps 745 mmHg 78%
    10:00 -1°C° 0 mm 3 mps 745 mmHg 74%
    11:00 0°C° 0 mm 3 mps 746 mmHg 70%
    12:00 0°C° 0 mm 3 mps 746 mmHg 69%
    13:00 +2°C° 0 mm 2 mps 746 mmHg 68%
    14:00 +2°C° 0 mm 2 mps 746 mmHg 68%
    15:00 +2°C° 0 mm 2 mps 747 mmHg 67%
    16:00 +1°C° 0 mm 2 mps 747 mmHg 69%
    17:00 -1°C° 0 mm 2 mps 747 mmHg 71%
    18:00 -1°C° 0 mm 2 mps 747 mmHg 73%
    19:00 -1°C° 0 mm 2 mps 748 mmHg 73%
    20:00 -1°C° 0 mm 2 mps 748 mmHg 73%
    21:00 -1°C° 0 mm 2 mps 748 mmHg 72%
    22:00 -1°C° 0.1 mm 2 mps 748 mmHg 74%
    23:00 +1°C° 0.1 mm 2 mps 748 mmHg 75%

    Tomorrow, 24 January, Thursday

    Time Temperature Precipitation Wind Pressure Humidity
    00:00 0°C° 0.1 mm 3 mps 748 mmHg 76%
    01:00 +1°C° 0.6 mm 2 mps 749 mmHg 80%
    02:00 +2°C° 0.6 mm 2 mps 749 mmHg 84%
    03:00 +2°C° 0.6 mm 2 mps 749 mmHg 88%
    04:00 +1°C° 0 mm 2 mps 749 mmHg 90%
    05:00 +1°C° 0 mm 2 mps 749 mmHg 91%
    06:00 +1°C° 0 mm 2 mps 749 mmHg 92%
    07:00 +1°C° 0 mm 2 mps 749 mmHg 92%
    08:00 +1°C° 0 mm 2 mps 750 mmHg 93%
    09:00 +1°C° 0 mm 2 mps 750 mmHg 93%
    10:00 +1°C° 0 mm 2 mps 750 mmHg 90%
    11:00 +2°C° 0 mm 2 mps 751 mmHg 88%
    12:00 +3°C° 0 mm 2 mps 751 mmHg 85%
    13:00 +3°C° 0 mm 2 mps 751 mmHg 86%
    14:00 +4°C° 0 mm 1 mps 751 mmHg 86%
    15:00 +4°C° 0 mm 1 mps 752 mmHg 86%
    16:00 +3°C° 0 mm 1 mps 752 mmHg 87%
    17:00 +2°C° 0 mm 1 mps 752 mmHg 87%
    18:00 +1°C° 0 mm 0 mps 753 mmHg 88%
    19:00 +2°C° 0 mm 1 mps 753 mmHg 88%
    20:00 +1°C° 0 mm 1 mps 754 mmHg 88%
    21:00 +1°C° 0 mm 1 mps 754 mmHg 88%
    22:00 +1°C° 0 mm 1 mps 754 mmHg 88%
    23:00 -1°C° 0 mm 2 mps 754 mmHg 87%

    Day after tomorrow, 25 January, Friday

    Time Temperature Precipitation Wind Pressure Humidity
    00:00 -1°C° 0 mm 2 mps 754 mmHg 87%
    01:00 0°C° 0.2 mm 3 mps 754 mmHg 87%
    02:00 0°C° 0.2 mm 3 mps 754 mmHg 87%
    03:00 +1°C° 0.2 mm 3 mps 754 mmHg 87%
    04:00 +1°C° 0.4 mm 4 mps 753 mmHg 89%
    05:00 +1°C° 0.4 mm 4 mps 753 mmHg 91%
    06:00 +3°C° 0.4 mm 4 mps 753 mmHg 93%
    07:00 +3°C° 0 mm 4 mps 753 mmHg 93%
    08:00 +3°C° 0 mm 5 mps 753 mmHg 93%
    09:00 +5°C° 0 mm 5 mps 752 mmHg 93%
    10:00 +6°C° 0 mm 5 mps 753 mmHg 92%
    11:00 +7°C° 0 mm 6 mps 753 mmHg 90%
    12:00 +7°C° 0 mm 6 mps 753 mmHg 89%
    13:00 +7°C° 0 mm 6 mps 753 mmHg 89%
    14:00 +7°C° 0 mm 6 mps 753 mmHg 89%
    15:00 +7°C° 0 mm 6 mps 753 mmHg 89%
    16:00 +7°C° 0 mm 6 mps 753 mmHg 89%
    17:00 +7°C° 0 mm 6 mps 753 mmHg 90%
    18:00 +7°C° 0 mm 6 mps 753 mmHg 90%
    19:00 +7°C° 0 mm 6 mps 753 mmHg 90%
    20:00 +7°C° 0 mm 6 mps 753 mmHg 89%
    21:00 +7°C° 0 mm 6 mps 753 mmHg 89%
    22:00 +7°C° 0 mm 6 mps 752 mmHg 89%
    23:00 +7°C° 0 mm 6 mps 752 mmHg 89%

    26 January, Saturday

    Time Temperature Precipitation Wind Pressure Humidity
    00:00 +7°C° 0 mm 6 mps 751 mmHg 89%
    01:00 +5°C° 0 mm 6 mps 751 mmHg 89%
    02:00 +5°C° 0 mm 6 mps 750 mmHg 89%
    03:00 +5°C° 0 mm 6 mps 750 mmHg 88%
    04:00 +5°C° 0 mm 6 mps 749 mmHg 88%
    05:00 +5°C° 0 mm 6 mps 748 mmHg 88%
    06:00 +5°C° 0 mm 6 mps 748 mmHg 87%
    07:00 +5°C° 0 mm 6 mps 746 mmHg 87%
    08:00 +5°C° 0 mm 7 mps 745 mmHg 86%
    09:00 +5°C° 0 mm 7 mps 744 mmHg 86%
    10:00 +6°C° 0.1 mm 8 mps 743 mmHg 84%
    11:00 +6°C° 0.1 mm 8 mps 742 mmHg 83%
    12:00 +6°C° 0.1 mm 9 mps 741 mmHg 81%
    13:00 +6°C° 0.5 mm 8 mps 740 mmHg 80%
    14:00 +5°C° 0.5 mm 7 mps 738 mmHg 80%
    15:00 +5°C° 0.5 mm 6 mps 737 mmHg 79%
    16:00 +4°C° 0 mm 6 mps 736 mmHg 79%
    17:00 +3°C° 0 mm 6 mps 735 mmHg 79%
    18:00 +3°C° 0 mm 6 mps 735 mmHg 79%
    19:00 +3°C° 0 mm 6 mps 733 mmHg 80%
    20:00 +3°C° 0 mm 7 mps 732 mmHg 80%
    21:00 +3°C° 0 mm 7 mps 731 mmHg 80%
    22:00 +3°C° 0.1 mm 6 mps 730 mmHg 82%
    23:00 +3°C° 0.1 mm 5 mps 729 mmHg 85%

    27 January, Sunday

    Time Temperature Precipitation Wind Pressure Humidity
    00:00 +3°C° 0.1 mm 5 mps 729 mmHg 87%
    01:00 +4°C° 0.2 mm 4 mps 728 mmHg 88%
    02:00 +4°C° 0.2 mm 4 mps 728 mmHg 89%
    03:00 +4°C° 0.2 mm 4 mps 728 mmHg 90%
    04:00 +3°C° 0.3 mm 5 mps 729 mmHg 88%
    05:00 +3°C° 0.3 mm 7 mps 729 mmHg 86%
    06:00 +2°C° 0.3 mm 8 mps 729 mmHg 84%
    07:00 +2°C° 0 mm 8 mps 730 mmHg 84%
    08:00 +2°C° 0 mm 8 mps 731 mmHg 84%
    09:00 +3°C° 0 mm 7 mps 732 mmHg 83%
    10:00 +2°C° 0.4 mm 8 mps 733 mmHg 83%
    11:00 +2°C° 0.4 mm 9 mps 734 mmHg 82%
    12:00 +3°C° 0.4 mm 10 mps 735 mmHg 81%
    13:00 +2°C° 0.9 mm 10 mps 736 mmHg 78%
    14:00 +2°C° 0.9 mm 11 mps 736 mmHg 75%
    15:00 +2°C° 0.9 mm 12 mps 737 mmHg 72%
    16:00 +1°C° 0.2 mm 11 mps 738 mmHg 71%
    17:00 +1°C° 0.2 mm 11 mps 739 mmHg 70%
    18:00 -1°C° 0.2 mm 11 mps 739 mmHg 69%
    19:00 -1°C° 0 mm 11 mps 740 mmHg 69%
    20:00 -1°C° 0 mm 11 mps 740 mmHg 69%
    21:00 -2°C° 0 mm 11 mps 740 mmHg 69%
    22:00 -2°C° 0 mm 12 mps 740 mmHg 68%
    23:00 -2°C° 0 mm 12 mps 741 mmHg 68%

    28 January, Monday

    Time Temperature Precipitation Wind Pressure Humidity
    00:00 -2°C° 0 mm 12 mps 741 mmHg 67%
    01:00 -1°C° 0.1 mm 12 mps 741 mmHg 68%
    02:00 -1°C° 0.1 mm 12 mps 741 mmHg 70%
    03:00 -1°C° 0.1 mm 11 mps 741 mmHg 71%
    04:00 -1°C° 0.1 mm 11 mps 742 mmHg 73%
    05:00 +1°C° 0.1 mm 11 mps 742 mmHg 75%
    06:00 +1°C° 0.1 mm 11 mps 743 mmHg 78%
    07:00 +1°C° 0.1 mm 11 mps 743 mmHg 76%
    08:00 +1°C° 0.1 mm 10 mps 744 mmHg 75%
    09:00 0°C° 0.1 mm 9 mps 745 mmHg 73%
    10:00 +1°C° 0.5 mm 10 mps 745 mmHg 76%
    11:00 +1°C° 0.5 mm 11 mps 746 mmHg 78%
    12:00 +2°C° 0.5 mm 11 mps 747 mmHg 81%
    13:00 +1°C° 0.4 mm 10 mps 747 mmHg 80%
    14:00 +1°C° 0.4 mm 10 mps 748 mmHg 79%
    15:00 +1°C° 0.4 mm 9 mps 749 mmHg 78%
    16:00 0°C° 0 mm 8 mps 749 mmHg 77%
    17:00 0°C° 0 mm 7 mps 750 mmHg 76%
    18:00 -1°C° 0 mm 6 mps 751 mmHg 75%
    19:00 -1°C° 0 mm 5 mps 751 mmHg 76%
    20:00 -1°C° 0 mm 4 mps 751 mmHg 77%
    21:00 -2°C° 0 mm 4 mps 751 mmHg 78%
    22:00 -2°C° 0 mm 4 mps 751 mmHg 79%
    23:00 -1°C° 0 mm 4 mps 750 mmHg 80%
    Show more